Weather History for Villahermosa Airport, Mexico

Change the Weather History Date:

Wednesday, July 24, 2013

  Actual Average Record
Temperature  
Mean Temperature 83 °F -  
Max Temperature 91 °F 92 °F 96 °F (2001)
Min Temperature 75 °F 74 °F 73 °F (1999)
Cooling Degree Days 18    
Growing Degree Days 33 (Base 50)    
Moisture  
Dew Point 72 °F    
Average Humidity 74    
Maximum Humidity 94    
Minimum Humidity 52    
Precipitation  
Precipitation 0.00 in - - ()
Sea Level Pressure  
Sea Level Pressure 29.90 in    
Wind  
Wind Speed 4 mph ()    
Max Wind Speed 14 mph    
Max Gust Speed -    
Visibility 7.0 miles    
Events      
Averages and records for this station are not official NWS values.
T = Trace of Precipitation, MM = Missing Value Source: Averaged Metar Reports

Daily Weather History Graph

Daily Weather History Graph

Search for Another Location

Airport:

Trip Planner

Search our weather history database for the weather conditions in past years. The results will help you decide how hot, cold, wet, or windy it might be!

Date:

Astronomy

Jul. 24, 2013 Rise Set
Actual Time 6:47 AM CDT 7:48 PM CDT
Civil Twilight 6:23 AM CDT 8:11 PM CDT
Nautical Twilight 5:56 AM CDT 8:39 PM CDT
Astronomical Twilight 5:27 AM CDT 9:07 PM CDT
Moon 9:26 PM CDT (7/24) 8:40 AM CDT (7/24)
Length of Visible Light 13h 47m
Length of Day
13h 00m
Waning Gibbous, 94% of the Moon is Illuminated
Jul 24
Waning Gibbous
Jul 29
Last Quarter
Aug 6
New
Aug 14
First Quarter
Aug 20
Full

Hourly Weather History & Observations

Time (CDT) Temp. Heat Index Dew Point Humidity Pressure Visibility Wind Dir Wind Speed Gust Speed Precip Events Conditions
4:16 AM 75.2 °F - 73.4 °F 94% 29.86 in 7.0 mi Calm Calm - N/A   Overcast
4:40 AM 75.2 °F - 73.4 °F 94% 29.86 in 7.0 mi Calm Calm - N/A   Overcast
5:59 AM 75.2 °F - 73.4 °F 94% 29.87 in 7.0 mi Calm Calm - N/A   Overcast
6:54 AM 75.2 °F - 73.4 °F 94% 29.96 in 7.0 mi Calm Calm - N/A   Mostly Cloudy
7:41 AM 75.2 °F - 73.4 °F 94% 29.89 in 7.0 mi Calm Calm - N/A   Overcast
8:40 AM 77.0 °F - 73.4 °F 89% 29.89 in 7.0 mi Calm Calm - N/A   Overcast
9:45 AM 78.8 °F - 73.4 °F 83% 29.97 in 7.0 mi ESE 5.8 mph - N/A   Mostly Cloudy
10:53 AM 82.4 °F 88.2 °F 73.4 °F 74% 29.90 in 7.0 mi Calm Calm - N/A   Mostly Cloudy
11:43 AM 84.2 °F 89.6 °F 71.6 °F 66% 29.91 in 7.0 mi ENE 4.6 mph - N/A   Mostly Cloudy
12:40 PM 86.0 °F 91.8 °F 71.6 °F 62% 29.99 in 7.0 mi ENE 5.8 mph - N/A   Mostly Cloudy
1:43 PM 89.6 °F 96.2 °F 71.6 °F 55% 29.93 in 7.0 mi East 13.8 mph - N/A   Mostly Cloudy
2:43 PM 89.6 °F 98.2 °F 73.4 °F 59% 29.90 in 7.0 mi ENE 11.5 mph - N/A   Mostly Cloudy
3:43 PM 91.4 °F 100.1 °F 73.4 °F 55% 29.88 in 7.0 mi ENE 13.8 mph - N/A   Mostly Cloudy
4:51 PM 91.4 °F 98.4 °F 71.6 °F 52% 29.86 in 7.0 mi ENE 13.8 mph - N/A   Mostly Cloudy
5:45 PM 89.6 °F 98.2 °F 73.4 °F 59% 29.85 in 7.0 mi ENE 11.5 mph - N/A   Mostly Cloudy
6:43 PM 87.8 °F 95.6 °F 73.4 °F 62% 29.86 in 7.0 mi East 11.5 mph - N/A   Scattered Clouds
7:43 PM 84.2 °F 90.9 °F 73.4 °F 70% 29.88 in 7.0 mi East 9.2 mph - N/A   Mostly Cloudy
8:53 PM 80.6 °F 83.9 °F 69.8 °F 70% 29.92 in 7.0 mi ENE 6.9 mph - N/A   Mostly Cloudy
9:42 PM 78.8 °F - 68.0 °F 69% 29.94 in 7.0 mi ENE 6.9 mph - N/A   Mostly Cloudy
10:47 PM 78.8 °F - 69.8 °F 74% 29.94 in 7.0 mi East 11.5 mph - N/A   Mostly Cloudy
11:43 PM 77.0 °F - 71.6 °F 83% 29.94 in 7.0 mi ENE 6.9 mph - N/A   Mostly Cloudy